NOZ3EG LGKF-ENGM

Flight info

Callsign NOZ3EG
Flight time 3h 25m
Altitude 36000
Route ROTSA DCT TIRCA DCT LEBGA DCT KUTAK DCT NORPI DCT KOPRY DCT NOHAT DCT TABEM/N0442F370 DCT KOZLI/N0447F380 DCT BEFRE T204 ABLOX DCT SONAL DCT KULUD DCT SABAK L997 LUNIP
Aircraft B738/M-SADE3GHIJ1LRWXY/LB1

Departure

Time 2026-04-16 11:03
Airport Kefallinia Airport (LGKF)

Arrival

Time 2026-04-16 14:29
Airport Oslo-Gardermoen International Airport (ENGM)
Time Latitude Longitude Altitude Speed Heading
2026-04-16 10:18 38.11953 20.50358 67 ft 0 kts 56°
2026-04-16 10:52 38.11949 20.50351 61 ft 3 kts 56°
2026-04-16 10:53 38.11938 20.50330 57 ft 3 kts 56°
2026-04-16 10:53 38.11927 20.50309 64 ft 3 kts 57°
2026-04-16 10:53 38.11915 20.50287 58 ft 3 kts 57°
2026-04-16 10:53 38.11906 20.50270 57 ft 0 kts 57°
2026-04-16 10:54 38.11907 20.50280 57 ft 3 kts 88°
2026-04-16 10:54 38.11898 20.50298 67 ft 3 kts 132°
2026-04-16 10:54 38.11882 20.50314 64 ft 3 kts 144°
2026-04-16 10:54 38.11865 20.50328 61 ft 3 kts 146°
2026-04-16 10:55 38.11858 20.50334 67 ft 0 kts 146°
2026-04-16 10:58 38.11853 20.50338 60 ft 2 kts 146°
2026-04-16 10:58 38.11833 20.50355 65 ft 4 kts 146°
2026-04-16 10:58 38.11809 20.50364 64 ft 4 kts 193°
2026-04-16 10:58 38.11799 20.50358 65 ft 0 kts 207°
2026-04-16 10:59 38.11798 20.50357 65 ft 1 kts 207°
2026-04-16 11:00 38.11779 20.50344 60 ft 8 kts 209°
2026-04-16 11:00 38.11698 20.50313 64 ft 16 kts 166°
2026-04-16 11:00 38.11598 20.50389 61 ft 17 kts 146°
2026-04-16 11:00 38.11500 20.50471 61 ft 17 kts 146°
2026-04-16 11:01 38.11407 20.50550 52 ft 16 kts 146°
2026-04-16 11:01 38.11323 20.50610 58 ft 9 kts 165°
2026-04-16 11:01 38.11269 20.50639 54 ft 7 kts 148°
2026-04-16 11:01 38.11269 20.50654 56 ft 1 kts 27°
2026-04-16 11:02 38.11282 20.50652 55 ft 2 kts 347°
2026-04-16 11:02 38.11292 20.50644 57 ft 0 kts 328°
2026-04-16 11:02 38.11294 20.50643 57 ft 2 kts 328°
2026-04-16 11:02 38.11471 20.50495 57 ft 66 kts 326°
2026-04-16 11:03 38.12051 20.50005 66 ft 132 kts 326°
2026-04-16 11:03 38.12962 20.49236 205 ft 172 kts 326°
2026-04-16 11:03 38.14925 20.47489 1505 ft 189 kts 328°
2026-04-16 11:04 38.16087 20.46443 1782 ft 219 kts 326°
2026-04-16 11:04 38.17403 20.45255 1995 ft 245 kts 326°
2026-04-16 11:04 38.18846 20.43952 2425 ft 261 kts 327°
2026-04-16 11:04 38.20361 20.42586 3244 ft 271 kts 327°
2026-04-16 11:05 38.21906 20.41189 4162 ft 275 kts 327°
2026-04-16 11:05 38.23486 20.39763 4996 ft 280 kts 326°
2026-04-16 11:05 38.25086 20.38326 5878 ft 284 kts 326°
2026-04-16 11:05 38.26763 20.36976 6724 ft 286 kts 341°
2026-04-16 11:06 38.28690 20.36731 7554 ft 279 kts 15°
2026-04-16 11:06 38.30488 20.37598 8436 ft 276 kts 25°
2026-04-16 11:06 38.32282 20.38514 9262 ft 279 kts 24°
2026-04-16 11:06 38.34100 20.39419 10068 ft 282 kts 24°
2026-04-16 11:07 38.35970 20.40344 10490 ft 300 kts 24°
2026-04-16 11:07 38.37996 20.41342 10673 ft 324 kts 23°
2026-04-16 11:07 38.40150 20.42393 11127 ft 336 kts 23°
2026-04-16 11:07 38.42352 20.43461 11827 ft 341 kts 23°
2026-04-16 11:08 38.44574 20.44536 12593 ft 343 kts 24°
2026-04-16 11:08 38.46816 20.45620 13349 ft 347 kts 24°
2026-04-16 11:08 38.49088 20.46719 14046 ft 350 kts 24°
2026-04-16 11:08 38.51384 20.47830 14596 ft 358 kts 24°
2026-04-16 11:09 38.53747 20.48977 15060 ft 366 kts 24°
2026-04-16 11:09 38.56139 20.50137 15717 ft 369 kts 23°
2026-04-16 11:09 38.58552 20.51306 16367 ft 373 kts 23°
2026-04-16 11:09 38.60990 20.52489 16945 ft 378 kts 23°
2026-04-16 11:10 38.63458 20.53688 17541 ft 382 kts 23°
2026-04-16 11:10 38.65961 20.54905 18129 ft 387 kts 23°
2026-04-16 11:10 38.68494 20.56138 18650 ft 391 kts 23°
2026-04-16 11:10 38.71047 20.57380 19215 ft 394 kts 23°
2026-04-16 11:11 38.73612 20.58630 19781 ft 395 kts 23°
2026-04-16 11:11 38.76188 20.59887 20331 ft 397 kts 23°
2026-04-16 11:11 38.78778 20.61151 20852 ft 400 kts 24°
2026-04-16 11:11 38.81381 20.62422 21366 ft 403 kts 24°
2026-04-16 11:12 38.84019 20.63705 21870 ft 406 kts 22°
2026-04-16 11:12 38.86794 20.64502 22349 ft 415 kts
2026-04-16 11:12 38.89692 20.64326 22859 ft 422 kts 351°
2026-04-16 11:12 38.92527 20.63246 23360 ft 427 kts 342°
2026-04-16 11:13 38.95322 20.61930 23784 ft 430 kts 342°
2026-04-16 11:13 38.98140 20.60567 24128 ft 434 kts 341°
2026-04-16 11:13 39.00971 20.59196 24494 ft 437 kts 341°
2026-04-16 11:13 39.03823 20.57825 24868 ft 439 kts 341°
2026-04-16 11:14 39.06694 20.56460 25212 ft 441 kts 341°
2026-04-16 11:14 39.09580 20.55099 25587 ft 443 kts 341°
2026-04-16 11:14 39.12484 20.53736 25934 ft 445 kts 341°
2026-04-16 11:14 39.15366 20.52387 26267 ft 448 kts 341°
2026-04-16 11:15 39.18303 20.51013 26616 ft 450 kts 341°
2026-04-16 11:15 39.21251 20.49634 26982 ft 452 kts 341°
2026-04-16 11:15 39.24260 20.48224 27345 ft 455 kts 341°
2026-04-16 11:15 39.27237 20.46828 27685 ft 457 kts 341°
2026-04-16 11:16 39.30194 20.45440 28052 ft 459 kts 341°
2026-04-16 11:16 39.33232 20.44012 28434 ft 460 kts 340°
2026-04-16 11:16 39.36245 20.42594 28748 ft 462 kts 340°
2026-04-16 11:16 39.39275 20.41167 29041 ft 465 kts 340°
2026-04-16 11:17 39.42282 20.39750 29337 ft 467 kts 340°
2026-04-16 11:17 39.45343 20.38305 29635 ft 469 kts 340°
2026-04-16 11:17 39.48410 20.36857 29945 ft 471 kts 340°
2026-04-16 11:17 39.51497 20.35398 30226 ft 472 kts 340°
2026-04-16 11:18 39.54581 20.33938 30584 ft 471 kts 340°
2026-04-16 11:18 39.57648 20.32486 31033 ft 467 kts 340°
2026-04-16 11:18 39.60702 20.31038 31370 ft 467 kts 340°
2026-04-16 11:18 39.63753 20.29590 31622 ft 469 kts 340°
2026-04-16 11:19 39.66816 20.28136 31899 ft 469 kts 340°
2026-04-16 11:19 39.69876 20.26681 32256 ft 468 kts 340°
2026-04-16 11:19 39.72930 20.25228 32583 ft 467 kts 340°
2026-04-16 11:19 39.75978 20.23776 32837 ft 467 kts 340°
2026-04-16 11:20 39.79036 20.22319 33107 ft 468 kts 339°
2026-04-16 11:20 39.82087 20.20863 33430 ft 467 kts 339°
2026-04-16 11:20 39.85140 20.19404 33745 ft 467 kts 339°
2026-04-16 11:20 39.88190 20.17946 34011 ft 467 kts 339°
2026-04-16 11:21 39.91238 20.16487 34263 ft 467 kts 339°
2026-04-16 11:21 39.94288 20.15027 34588 ft 465 kts 339°
2026-04-16 11:21 39.97316 20.13575 34937 ft 462 kts 339°
2026-04-16 11:21 40.00320 20.12134 35313 ft 458 kts 340°
2026-04-16 11:22 40.03300 20.10702 35654 ft 455 kts 340°
2026-04-16 11:22 40.06272 20.09273 35855 ft 456 kts 340°
2026-04-16 11:22 40.09255 20.07838 35980 ft 458 kts 340°
2026-04-16 11:23 40.15255 20.04946 35988 ft 460 kts 340°
2026-04-16 11:23 40.21233 20.02059 35989 ft 456 kts 340°
2026-04-16 11:24 40.27153 19.99195 36004 ft 451 kts 340°
2026-04-16 11:24 40.33037 19.96343 36004 ft 450 kts 340°
2026-04-16 11:25 40.38907 19.93493 36013 ft 450 kts 340°
2026-04-16 11:25 40.44785 19.90633 36007 ft 452 kts 340°
2026-04-16 11:26 40.50687 19.87756 36009 ft 454 kts 339°
2026-04-16 11:26 40.56578 19.84875 36014 ft 456 kts 339°
2026-04-16 11:27 40.62516 19.81897 36003 ft 457 kts 339°
2026-04-16 11:27 40.68468 19.78882 36016 ft 459 kts 338°
2026-04-16 11:28 40.74436 19.75861 36017 ft 460 kts 338°
2026-04-16 11:28 40.80405 19.72838 36011 ft 459 kts 338°
2026-04-16 11:29 40.86369 19.69814 36010 ft 458 kts 338°
2026-04-16 11:29 40.92312 19.66796 36012 ft 457 kts 338°
2026-04-16 11:30 40.98234 19.63781 36018 ft 455 kts 338°
2026-04-16 11:30 41.04137 19.60771 36022 ft 454 kts 338°
2026-04-16 11:31 41.10017 19.57766 36024 ft 452 kts 338°
2026-04-16 11:31 41.15879 19.54765 36023 ft 451 kts 338°
2026-04-16 11:32 41.21729 19.51764 36034 ft 450 kts 338°
2026-04-16 11:32 41.27573 19.48761 36033 ft 450 kts 338°
2026-04-16 11:33 41.33408 19.45756 36048 ft 450 kts 338°
2026-04-16 11:33 41.39252 19.42741 36030 ft 450 kts 338°
2026-04-16 11:34 41.45092 19.39722 36033 ft 451 kts 338°
2026-04-16 11:34 41.50940 19.36693 36033 ft 451 kts 338°
2026-04-16 11:35 41.56793 19.33656 36032 ft 451 kts 338°
2026-04-16 11:35 41.62646 19.30613 36032 ft 451 kts 338°
2026-04-16 11:36 41.67500 19.28084 36028 ft 451 kts 338°
2026-04-16 11:36 41.74306 19.24532 36029 ft 452 kts 338°
2026-04-16 11:37 41.80155 19.21472 36026 ft 451 kts 338°
2026-04-16 11:37 41.85057 19.18903 36035 ft 451 kts 338°
2026-04-16 11:38 41.90910 19.15897 36030 ft 450 kts 340°
2026-04-16 11:38 41.96851 19.13234 36033 ft 450 kts 341°
2026-04-16 11:39 42.02800 19.10636 36040 ft 449 kts 341°
2026-04-16 11:39 42.08722 19.08002 36033 ft 448 kts 341°
2026-04-16 11:40 42.14627 19.05339 36028 ft 447 kts 341°
2026-04-16 11:40 42.20483 19.02682 36024 ft 447 kts 341°
2026-04-16 11:41 42.26372 19.00006 36028 ft 446 kts 340°
2026-04-16 11:41 42.32256 18.97327 36015 ft 446 kts 340°
2026-04-16 11:42 42.38131 18.94648 36021 ft 445 kts 340°
2026-04-16 11:42 42.44002 18.91965 36019 ft 445 kts 340°
2026-04-16 11:43 42.49872 18.89278 36030 ft 445 kts 340°
2026-04-16 11:43 42.55735 18.86588 36026 ft 445 kts 340°
2026-04-16 11:44 42.61598 18.83893 36037 ft 444 kts 340°
2026-04-16 11:44 42.67454 18.81197 36049 ft 444 kts 340°
2026-04-16 11:45 42.73305 18.78497 36037 ft 444 kts 340°
2026-04-16 11:45 42.79149 18.75794 36050 ft 443 kts 341°
2026-04-16 11:46 42.84984 18.73091 36053 ft 443 kts 341°
2026-04-16 11:46 42.90809 18.70386 36065 ft 442 kts 341°
2026-04-16 11:47 42.96619 18.67684 36056 ft 441 kts 341°
2026-04-16 11:47 43.02422 18.64979 36070 ft 440 kts 341°
2026-04-16 11:48 43.08206 18.62277 36080 ft 439 kts 341°
2026-04-16 11:48 43.13986 18.59572 36080 ft 439 kts 341°
2026-04-16 11:49 43.19757 18.56865 36084 ft 438 kts 341°
2026-04-16 11:49 43.25521 18.54155 36100 ft 438 kts 340°
2026-04-16 11:50 43.31209 18.51172 36093 ft 437 kts 338°
2026-04-16 11:50 43.36846 18.48044 36107 ft 437 kts 338°
2026-04-16 11:51 43.42499 18.44926 36108 ft 438 kts 338°
2026-04-16 11:51 43.48157 18.41833 36105 ft 438 kts 338°
2026-04-16 11:52 43.53822 18.38742 36116 ft 438 kts 338°
2026-04-16 11:52 43.59482 18.35649 36120 ft 437 kts 338°
2026-04-16 11:53 43.65134 18.32554 36126 ft 437 kts 338°
2026-04-16 11:53 43.70782 18.29453 36130 ft 436 kts 338°
2026-04-16 11:54 43.76384 18.26372 36132 ft 436 kts 338°
2026-04-16 11:54 43.82016 18.23267 36133 ft 436 kts 338°
2026-04-16 11:55 43.87647 18.20157 36127 ft 435 kts 338°
2026-04-16 11:55 43.93267 18.17046 36129 ft 435 kts 339°
2026-04-16 11:56 43.98884 18.13931 36134 ft 435 kts 339°
2026-04-16 11:56 44.04500 18.10810 36133 ft 435 kts 339°
2026-04-16 11:57 44.10117 18.07681 36141 ft 435 kts 339°
2026-04-16 11:57 44.15743 18.04541 36132 ft 436 kts 340°
2026-04-16 11:58 44.21376 18.01393 36145 ft 436 kts 340°
2026-04-16 11:58 44.27073 17.98453 36153 ft 437 kts 342°
2026-04-16 11:59 44.32814 17.95636 36147 ft 438 kts 342°
2026-04-16 11:59 44.38565 17.92791 36156 ft 439 kts 342°
2026-04-16 12:00 44.44332 17.89904 36159 ft 441 kts 342°
2026-04-16 12:00 44.50108 17.86992 36155 ft 442 kts 343°
2026-04-16 12:01 44.55894 17.84068 36155 ft 442 kts 343°
2026-04-16 12:01 44.61682 17.81136 36166 ft 442 kts 343°
2026-04-16 12:02 44.70351 17.76734 36159 ft 441 kts 342°
2026-04-16 12:02 44.76126 17.73794 36148 ft 442 kts 342°
2026-04-16 12:03 44.81895 17.70851 36163 ft 440 kts 342°
2026-04-16 12:03 44.87646 17.67910 36164 ft 439 kts 342°
2026-04-16 12:04 44.93332 17.64997 36167 ft 437 kts 342°
2026-04-16 12:04 44.99042 17.62066 36170 ft 436 kts 342°
2026-04-16 12:05 45.04728 17.59140 36160 ft 434 kts 342°
2026-04-16 12:05 45.10403 17.56215 36161 ft 434 kts 342°
2026-04-16 12:06 45.16069 17.53287 36158 ft 433 kts 341°
2026-04-16 12:06 45.21735 17.50354 36165 ft 433 kts 341°
2026-04-16 12:07 45.27405 17.47412 36171 ft 434 kts 341°
2026-04-16 12:07 45.33081 17.44460 36167 ft 435 kts 341°
2026-04-16 12:08 45.38773 17.41494 36169 ft 436 kts 341°
2026-04-16 12:08 45.44477 17.38516 36166 ft 437 kts 341°
2026-04-16 12:09 45.50187 17.35527 36164 ft 438 kts 341°
2026-04-16 12:09 45.55903 17.32529 36171 ft 438 kts 341°
2026-04-16 12:10 45.61621 17.29524 36166 ft 438 kts 340°
2026-04-16 12:10 45.67329 17.26517 36178 ft 437 kts 340°
2026-04-16 12:11 45.73023 17.23510 36168 ft 436 kts 340°
2026-04-16 12:11 45.78697 17.20509 36174 ft 434 kts 340°
2026-04-16 12:12 45.84317 17.17529 36173 ft 433 kts 340°
2026-04-16 12:12 45.89948 17.14537 36165 ft 431 kts 339°
2026-04-16 12:13 45.95571 17.11542 36175 ft 430 kts 339°
2026-04-16 12:13 46.01167 17.08555 36174 ft 429 kts 339°
2026-04-16 12:14 46.06756 17.05566 36182 ft 428 kts 339°
2026-04-16 12:14 46.12328 17.02580 36190 ft 427 kts 339°
2026-04-16 12:15 46.17895 16.99589 36183 ft 427 kts 339°
2026-04-16 12:15 46.23453 16.96597 36188 ft 427 kts 338°
2026-04-16 12:16 46.28984 16.93463 36182 ft 427 kts 336°
2026-04-16 12:16 46.34495 16.90200 36197 ft 428 kts 336°
2026-04-16 12:17 46.40017 16.86934 36195 ft 430 kts 336°
2026-04-16 12:17 46.45564 16.83665 36193 ft 431 kts 336°
2026-04-16 12:18 46.51118 16.80393 36198 ft 431 kts 336°
2026-04-16 12:18 46.56686 16.77106 36197 ft 432 kts 336°
2026-04-16 12:19 46.62226 16.73828 36192 ft 433 kts 336°
2026-04-16 12:19 46.67838 16.70498 36202 ft 433 kts 336°
2026-04-16 12:20 46.73382 16.67202 36193 ft 433 kts 336°
2026-04-16 12:20 46.78948 16.63886 36198 ft 432 kts 336°
2026-04-16 12:21 46.84531 16.60638 36207 ft 432 kts 337°
2026-04-16 12:21 46.90163 16.57557 36204 ft 432 kts 337°
2026-04-16 12:22 46.95782 16.54496 36192 ft 431 kts 337°
2026-04-16 12:22 47.01389 16.51411 36201 ft 430 kts 336°
2026-04-16 12:23 47.06981 16.48316 36205 ft 429 kts 336°
2026-04-16 12:23 47.12561 16.45214 36203 ft 429 kts 336°
2026-04-16 12:24 47.17197 16.42632 36203 ft 428 kts 336°
2026-04-16 12:24 47.22765 16.39525 36208 ft 428 kts 336°
2026-04-16 12:25 47.28331 16.36412 36210 ft 428 kts 336°
2026-04-16 12:25 47.33937 16.33270 36213 ft 428 kts 336°
2026-04-16 12:26 47.39510 16.30139 36211 ft 429 kts 336°
2026-04-16 12:26 47.45057 16.27015 36196 ft 430 kts 336°
2026-04-16 12:27 47.50640 16.23866 36219 ft 429 kts 335°
2026-04-16 12:27 47.56217 16.20711 36213 ft 429 kts 335°
2026-04-16 12:28 47.61786 16.17554 36207 ft 429 kts 335°
2026-04-16 12:28 47.67348 16.14393 36207 ft 429 kts 335°
2026-04-16 12:29 47.72934 16.11212 36207 ft 429 kts 335°
2026-04-16 12:29 47.78507 16.08031 36219 ft 429 kts 335°
2026-04-16 12:30 47.84084 16.04840 36216 ft 429 kts 335°
2026-04-16 12:30 47.89653 16.01647 36217 ft 428 kts 335°
2026-04-16 12:31 47.95205 15.98456 36219 ft 428 kts 335°
2026-04-16 12:31 48.00755 15.95259 36225 ft 427 kts 334°
2026-04-16 12:32 48.06305 15.92054 36221 ft 427 kts 334°
2026-04-16 12:32 48.11848 15.88845 36230 ft 428 kts 334°
2026-04-16 12:33 48.17399 15.85624 36227 ft 428 kts 334°
2026-04-16 12:33 48.22961 15.82391 36234 ft 429 kts 334°
2026-04-16 12:34 48.28486 15.79170 36233 ft 429 kts 334°
2026-04-16 12:34 48.34053 15.75918 36228 ft 430 kts 334°
2026-04-16 12:35 48.39623 15.72656 36225 ft 430 kts 334°
2026-04-16 12:35 48.45194 15.69387 36259 ft 430 kts 334°
2026-04-16 12:36 48.50778 15.66101 36236 ft 430 kts 334°
2026-04-16 12:36 48.56355 15.62812 36221 ft 430 kts 334°
2026-04-16 12:37 48.61931 15.59516 36227 ft 430 kts 334°
2026-04-16 12:37 48.67504 15.56214 36220 ft 430 kts 334°
2026-04-16 12:38 48.73071 15.52908 36237 ft 430 kts 334°
2026-04-16 12:38 48.78634 15.49595 36223 ft 430 kts 334°
2026-04-16 12:39 48.84194 15.46277 36225 ft 429 kts 334°
2026-04-16 12:39 48.89742 15.42958 36233 ft 429 kts 334°
2026-04-16 12:40 48.95292 15.39630 36239 ft 428 kts 333°
2026-04-16 12:40 49.00835 15.36297 36224 ft 428 kts 333°
2026-04-16 12:41 49.06374 15.32959 36215 ft 428 kts 333°
2026-04-16 12:41 49.11861 15.29645 36226 ft 427 kts 333°
2026-04-16 12:42 49.17380 15.26304 36216 ft 426 kts 333°
2026-04-16 12:42 49.22982 15.23265 36217 ft 432 kts 343°
2026-04-16 12:43 49.29037 15.22665 36217 ft 443 kts
2026-04-16 12:43 49.35181 15.23682 36212 ft 445 kts
2026-04-16 12:44 49.41329 15.24787 36239 ft 444 kts
2026-04-16 12:44 49.47477 15.25828 36219 ft 445 kts
2026-04-16 12:45 49.53635 15.26831 36215 ft 445 kts
2026-04-16 12:45 49.59795 15.27829 36217 ft 445 kts
2026-04-16 12:46 49.65963 15.28832 36222 ft 446 kts
2026-04-16 12:46 49.72134 15.29839 36216 ft 446 kts
2026-04-16 12:47 49.78297 15.30848 36204 ft 446 kts
2026-04-16 12:47 49.84463 15.31861 36210 ft 445 kts
2026-04-16 12:48 49.90623 15.32875 36214 ft 445 kts
2026-04-16 12:48 49.96779 15.33890 36196 ft 445 kts
2026-04-16 12:49 50.02934 15.34781 36187 ft 440 kts 354°
2026-04-16 12:49 50.08844 15.33254 36193 ft 426 kts 335°
2026-04-16 12:50 50.14194 15.29511 36197 ft 421 kts 329°
2026-04-16 12:50 50.19464 15.25542 36203 ft 421 kts 329°
2026-04-16 12:51 50.24753 15.21596 36200 ft 421 kts 329°
2026-04-16 12:51 50.30062 15.17668 36201 ft 422 kts 330°
2026-04-16 12:52 50.35366 15.13747 36211 ft 422 kts 330°
2026-04-16 12:52 50.40684 15.09808 36202 ft 423 kts 330°
2026-04-16 12:53 50.46004 15.05858 36194 ft 423 kts 330°
2026-04-16 12:53 50.51319 15.01899 36192 ft 423 kts 330°
2026-04-16 12:54 50.56638 14.97929 36188 ft 423 kts 330°
2026-04-16 12:54 50.61917 14.93978 36214 ft 423 kts 330°
2026-04-16 12:55 50.67224 14.89996 36190 ft 423 kts 330°
2026-04-16 12:55 50.72534 14.86002 36180 ft 422 kts 330°
2026-04-16 12:56 50.77834 14.82005 36180 ft 422 kts 330°
2026-04-16 12:56 50.83120 14.78008 36183 ft 421 kts 330°
2026-04-16 12:57 50.88400 14.74006 36197 ft 421 kts 330°
2026-04-16 12:57 50.93695 14.70057 36184 ft 422 kts 334°
2026-04-16 12:58 50.99384 14.67521 36182 ft 426 kts 341°
2026-04-16 12:58 51.05138 14.65310 36185 ft 425 kts 341°
2026-04-16 12:59 51.10874 14.63036 36178 ft 425 kts 341°
2026-04-16 13:00 51.19465 14.59558 36190 ft 425 kts 341°
2026-04-16 13:00 51.25199 14.57232 36183 ft 425 kts 341°
2026-04-16 13:01 51.30924 14.54915 36182 ft 425 kts 341°
2026-04-16 13:01 51.36655 14.52589 36181 ft 425 kts 341°
2026-04-16 13:02 51.42356 14.50144 36192 ft 424 kts 339°
2026-04-16 13:02 51.48023 14.47516 36178 ft 424 kts 339°
2026-04-16 13:03 51.53688 14.44872 36176 ft 424 kts 339°
2026-04-16 13:03 51.59358 14.42241 36171 ft 424 kts 339°
2026-04-16 13:04 51.65031 14.39615 36191 ft 424 kts 339°
2026-04-16 13:04 51.70700 14.36988 36177 ft 424 kts 339°
2026-04-16 13:05 51.76367 14.34355 36173 ft 424 kts 339°
2026-04-16 13:05 51.82024 14.31721 36173 ft 423 kts 339°
2026-04-16 13:06 51.87679 14.29080 36174 ft 423 kts 339°
2026-04-16 13:06 51.93295 14.26449 36182 ft 423 kts 339°
2026-04-16 13:07 51.98985 14.23777 36174 ft 423 kts 339°
2026-04-16 13:07 52.04635 14.21118 36180 ft 423 kts 339°
2026-04-16 13:08 52.10246 14.18469 36180 ft 422 kts 339°
2026-04-16 13:08 52.15886 14.15800 36204 ft 422 kts 339°
2026-04-16 13:09 52.21533 14.13120 36186 ft 423 kts 339°
2026-04-16 13:09 52.27180 14.10434 36173 ft 423 kts 339°
2026-04-16 13:10 52.32830 14.07738 36176 ft 423 kts 339°
2026-04-16 13:10 52.37522 14.05495 36188 ft 423 kts 339°
2026-04-16 13:11 52.43174 14.02786 36197 ft 423 kts 340°
2026-04-16 13:11 52.48827 14.00068 36184 ft 423 kts 340°
2026-04-16 13:12 52.54481 13.97343 36177 ft 423 kts 340°
2026-04-16 13:12 52.60133 13.94613 36181 ft 423 kts 339°
2026-04-16 13:13 52.65784 13.91874 36177 ft 423 kts 339°
2026-04-16 13:13 52.71432 13.89130 36178 ft 423 kts 339°
2026-04-16 13:14 52.77080 13.86379 36182 ft 423 kts 339°
2026-04-16 13:14 52.82733 13.83617 36182 ft 423 kts 339°
2026-04-16 13:15 52.88378 13.80853 36176 ft 423 kts 339°
2026-04-16 13:15 52.94027 13.78078 36192 ft 423 kts 339°
2026-04-16 13:16 52.99671 13.75298 36185 ft 423 kts 339°
2026-04-16 13:16 53.05321 13.72508 36175 ft 423 kts 339°
2026-04-16 13:17 53.10971 13.69710 36175 ft 424 kts 339°
2026-04-16 13:17 53.16617 13.66907 36175 ft 424 kts 339°
2026-04-16 13:18 53.22273 13.64090 36194 ft 424 kts 340°
2026-04-16 13:18 53.27926 13.61268 36179 ft 424 kts 340°
2026-04-16 13:19 53.33585 13.58435 36172 ft 424 kts 340°
2026-04-16 13:19 53.39238 13.55597 36178 ft 424 kts 340°
2026-04-16 13:20 53.44891 13.52751 36172 ft 424 kts 340°
2026-04-16 13:20 53.50545 13.49896 36184 ft 424 kts 340°
2026-04-16 13:21 53.56209 13.47028 36185 ft 427 kts 340°
2026-04-16 13:21 53.61939 13.44116 36427 ft 432 kts 340°
2026-04-16 13:21 53.64816 13.42653 36687 ft 431 kts 340°
2026-04-16 13:22 53.67686 13.41192 36925 ft 431 kts 340°
2026-04-16 13:22 53.70559 13.39727 37120 ft 432 kts 340°
2026-04-16 13:22 53.73434 13.38258 37300 ft 433 kts 340°
2026-04-16 13:22 53.76316 13.36783 37497 ft 433 kts 340°
2026-04-16 13:23 53.79168 13.35321 37641 ft 435 kts 340°
2026-04-16 13:23 53.82071 13.33831 37822 ft 436 kts 340°
2026-04-16 13:23 53.84969 13.32342 38050 ft 435 kts 340°
2026-04-16 13:23 53.87866 13.30852 38163 ft 436 kts 340°
2026-04-16 13:24 53.90783 13.29348 38165 ft 439 kts 340°
2026-04-16 13:24 53.96616 13.26336 38171 ft 437 kts 340°
2026-04-16 13:25 54.02414 13.23334 38192 ft 434 kts 340°
2026-04-16 13:25 54.08179 13.20339 38177 ft 432 kts 340°
2026-04-16 13:26 54.13922 13.17346 38175 ft 431 kts 340°
2026-04-16 13:26 54.19652 13.14351 38175 ft 431 kts 340°
2026-04-16 13:27 54.25385 13.11346 38180 ft 431 kts 340°
2026-04-16 13:27 54.31130 13.08325 38190 ft 433 kts 340°
2026-04-16 13:28 54.36908 13.05279 38188 ft 435 kts 340°
2026-04-16 13:28 54.42716 13.02208 38185 ft 438 kts 340°
2026-04-16 13:29 54.48547 12.99116 38190 ft 440 kts 340°
2026-04-16 13:29 54.54409 12.95998 38192 ft 441 kts 340°
2026-04-16 13:30 54.60283 12.92864 38195 ft 443 kts 340°
2026-04-16 13:30 54.66177 12.89710 38188 ft 443 kts 340°
2026-04-16 13:31 54.72069 12.86548 38192 ft 443 kts 340°
2026-04-16 13:31 54.77958 12.83377 38186 ft 443 kts 340°
2026-04-16 13:32 54.83834 12.80204 38192 ft 442 kts 340°
2026-04-16 13:32 54.89734 12.77232 38193 ft 443 kts 345°
2026-04-16 13:33 54.95797 12.75293 38200 ft 443 kts 348°
2026-04-16 13:33 55.01867 12.73537 38195 ft 442 kts 348°
2026-04-16 13:34 55.07883 12.71722 38195 ft 441 kts 347°
2026-04-16 13:34 55.13922 12.69834 38212 ft 441 kts 347°
2026-04-16 13:35 55.19959 12.67920 38195 ft 441 kts 347°
2026-04-16 13:35 55.25990 12.66000 38204 ft 441 kts 347°
2026-04-16 13:36 55.32029 12.64074 38208 ft 441 kts 347°
2026-04-16 13:36 55.38078 12.62140 38211 ft 442 kts 347°
2026-04-16 13:37 55.44134 12.60198 38206 ft 443 kts 347°
2026-04-16 13:37 55.50204 12.58245 38204 ft 443 kts 347°
2026-04-16 13:38 55.56278 12.56285 38217 ft 444 kts 347°
2026-04-16 13:38 55.62356 12.54318 38215 ft 445 kts 347°
2026-04-16 13:39 55.68440 12.52342 38222 ft 445 kts 347°
2026-04-16 13:39 55.74539 12.50355 38213 ft 445 kts 347°
2026-04-16 13:40 55.80633 12.48364 38209 ft 446 kts 347°
2026-04-16 13:40 55.86731 12.46364 38208 ft 445 kts 347°
2026-04-16 13:41 55.92829 12.44359 38190 ft 445 kts 347°
2026-04-16 13:41 55.98921 12.42349 38195 ft 445 kts 347°
2026-04-16 13:42 56.05006 12.40334 38209 ft 445 kts 347°
2026-04-16 13:42 56.11099 12.38311 38198 ft 445 kts 347°
2026-04-16 13:43 56.17187 12.36282 38196 ft 445 kts 347°
2026-04-16 13:43 56.23273 12.34249 38210 ft 445 kts 347°
2026-04-16 13:44 56.29354 12.32200 38200 ft 445 kts 347°
2026-04-16 13:44 56.35429 12.30116 38202 ft 444 kts 347°
2026-04-16 13:45 56.41506 12.28021 38201 ft 444 kts 347°
2026-04-16 13:45 56.47577 12.25924 38197 ft 444 kts 347°
2026-04-16 13:46 56.53649 12.23821 38204 ft 444 kts 347°
2026-04-16 13:46 56.59729 12.21710 38199 ft 445 kts 347°
2026-04-16 13:47 56.65770 12.19606 38201 ft 445 kts 347°
2026-04-16 13:47 56.71856 12.17478 38211 ft 446 kts 347°
2026-04-16 13:48 56.77953 12.15340 38207 ft 446 kts 347°
2026-04-16 13:48 56.84060 12.13191 38209 ft 447 kts 347°
2026-04-16 13:49 56.90170 12.11034 38201 ft 448 kts 347°
2026-04-16 13:49 56.96287 12.08867 38206 ft 448 kts 347°
2026-04-16 13:50 57.02414 12.06690 38209 ft 448 kts 347°
2026-04-16 13:50 57.08544 12.04504 38211 ft 449 kts 347°
2026-04-16 13:51 57.14682 12.02307 38206 ft 449 kts 347°
2026-04-16 13:51 57.20817 12.00105 38204 ft 449 kts 347°
2026-04-16 13:52 57.26954 11.97894 38201 ft 449 kts 347°
2026-04-16 13:52 57.33086 11.95678 38207 ft 449 kts 347°
2026-04-16 13:53 57.39217 11.93454 38210 ft 449 kts 347°
2026-04-16 13:53 57.45359 11.91219 38209 ft 450 kts 347°
2026-04-16 13:54 57.51499 11.88977 38200 ft 450 kts 347°
2026-04-16 13:54 57.57644 11.86725 38200 ft 450 kts 347°
2026-04-16 13:55 57.63786 11.84466 38202 ft 450 kts 347°
2026-04-16 13:55 57.68892 11.82583 38181 ft 450 kts 347°
2026-04-16 13:56 57.75046 11.80306 38185 ft 451 kts 347°
2026-04-16 13:56 57.81199 11.78021 38187 ft 451 kts 347°
2026-04-16 13:57 57.87355 11.75727 38209 ft 451 kts 347°
2026-04-16 13:57 57.93523 11.73421 38207 ft 452 kts 347°
2026-04-16 13:58 58.02769 11.69948 38200 ft 452 kts 347°
2026-04-16 13:58 58.08936 11.67621 38193 ft 452 kts 347°
2026-04-16 13:59 58.15099 11.65289 38194 ft 452 kts 347°
2026-04-16 13:59 58.18188 11.64117 37841 ft 457 kts 348°
2026-04-16 13:59 58.21319 11.63048 37320 ft 455 kts 349°
2026-04-16 14:00 58.24434 11.62096 36844 ft 451 kts 350°
2026-04-16 14:00 58.27519 11.61191 36463 ft 446 kts 350°
2026-04-16 14:00 58.30536 11.60303 36061 ft 442 kts 350°
2026-04-16 14:00 58.33600 11.59386 35647 ft 439 kts 349°
2026-04-16 14:01 58.36562 11.58484 35246 ft 435 kts 349°
2026-04-16 14:01 58.39545 11.57564 34845 ft 432 kts 349°
2026-04-16 14:01 58.42506 11.56644 34442 ft 429 kts 349°
2026-04-16 14:01 58.45447 11.55727 33992 ft 427 kts 349°
2026-04-16 14:02 58.48369 11.54815 33544 ft 424 kts 349°
2026-04-16 14:02 58.51265 11.53909 33134 ft 420 kts 349°
2026-04-16 14:02 58.54136 11.53010 32709 ft 416 kts 349°
2026-04-16 14:02 58.56982 11.52118 32358 ft 412 kts 349°
2026-04-16 14:03 58.59795 11.51234 31965 ft 408 kts 349°
2026-04-16 14:03 58.62579 11.50358 31588 ft 404 kts 349°
2026-04-16 14:03 58.65346 11.49487 31211 ft 401 kts 349°
2026-04-16 14:03 58.68082 11.48624 30844 ft 397 kts 349°
2026-04-16 14:04 58.70796 11.47766 30484 ft 394 kts 349°
2026-04-16 14:04 58.73485 11.46913 30103 ft 390 kts 349°
2026-04-16 14:04 58.76152 11.46066 29700 ft 386 kts 349°
2026-04-16 14:04 58.78785 11.45229 29324 ft 381 kts 349°
2026-04-16 14:05 58.81384 11.44400 28953 ft 377 kts 349°
2026-04-16 14:05 58.83960 11.43578 28565 ft 374 kts 348°
2026-04-16 14:05 58.86517 11.42760 28161 ft 371 kts 349°
2026-04-16 14:05 58.89054 11.41948 27791 ft 369 kts 349°
2026-04-16 14:06 58.91575 11.41139 27418 ft 366 kts 349°
2026-04-16 14:06 58.94080 11.40335 27056 ft 363 kts 348°
2026-04-16 14:06 58.96562 11.39536 26691 ft 361 kts 349°
2026-04-16 14:06 58.99036 11.38739 26329 ft 359 kts 349°
2026-04-16 14:07 59.01487 11.37948 25980 ft 356 kts 349°
2026-04-16 14:07 59.03929 11.37160 25617 ft 355 kts 348°
2026-04-16 14:07 59.06355 11.36375 25270 ft 353 kts 348°
2026-04-16 14:07 59.08773 11.35592 24920 ft 351 kts 349°
2026-04-16 14:08 59.11172 11.34798 24572 ft 349 kts 347°
2026-04-16 14:08 59.13537 11.33782 24225 ft 347 kts 345°
2026-04-16 14:08 59.15879 11.32678 23867 ft 346 kts 345°
2026-04-16 14:08 59.18247 11.31922 23429 ft 347 kts
2026-04-16 14:09 59.20608 11.32781 23129 ft 345 kts 14°
2026-04-16 14:09 59.22900 11.34166 22728 ft 344 kts 16°
2026-04-16 14:09 59.25160 11.35647 22382 ft 341 kts 17°
2026-04-16 14:09 59.27421 11.36988 22005 ft 338 kts
2026-04-16 14:10 59.29747 11.37363 21574 ft 335 kts 359°
2026-04-16 14:10 59.32082 11.37414 21166 ft 335 kts 359°
2026-04-16 14:10 59.34402 11.37441 20802 ft 332 kts 358°
2026-04-16 14:10 59.36706 11.37469 20459 ft 330 kts 358°
2026-04-16 14:11 59.38988 11.37504 20117 ft 327 kts 358°
2026-04-16 14:11 59.41259 11.37546 19794 ft 325 kts 359°
2026-04-16 14:11 59.43482 11.37594 19465 ft 323 kts 359°
2026-04-16 14:11 59.45719 11.37646 19144 ft 321 kts 358°
2026-04-16 14:12 59.47944 11.37700 18819 ft 319 kts 359°
2026-04-16 14:12 59.50155 11.37756 18507 ft 317 kts 359°
2026-04-16 14:12 59.52357 11.37814 18143 ft 316 kts 358°
2026-04-16 14:12 59.54545 11.37871 17803 ft 313 kts 359°
2026-04-16 14:13 59.56719 11.37928 17485 ft 311 kts 359°
2026-04-16 14:13 59.58872 11.37985 17165 ft 308 kts 359°
2026-04-16 14:13 59.61003 11.38041 16860 ft 306 kts 359°
2026-04-16 14:13 59.63126 11.38098 16535 ft 304 kts 359°
2026-04-16 14:14 59.65238 11.38155 16227 ft 302 kts 360°
2026-04-16 14:14 59.67333 11.38211 15923 ft 300 kts
2026-04-16 14:14 59.69418 11.38267 15610 ft 299 kts
2026-04-16 14:14 59.71508 11.38322 15314 ft 302 kts
2026-04-16 14:15 59.73623 11.38380 15014 ft 306 kts
2026-04-16 14:15 59.75775 11.38439 14709 ft 312 kts
2026-04-16 14:15 59.77962 11.38499 14386 ft 317 kts
2026-04-16 14:15 59.80164 11.38558 14061 ft 316 kts
2026-04-16 14:16 59.82355 11.38617 13707 ft 314 kts
2026-04-16 14:16 59.84536 11.38677 13364 ft 312 kts
2026-04-16 14:16 59.86700 11.38736 13038 ft 310 kts
2026-04-16 14:16 59.88850 11.38794 12745 ft 307 kts
2026-04-16 14:17 59.90979 11.38852 12428 ft 305 kts
2026-04-16 14:17 59.93094 11.38909 12122 ft 303 kts
2026-04-16 14:17 59.95198 11.38967 11819 ft 302 kts
2026-04-16 14:17 59.97293 11.39025 11514 ft 300 kts
2026-04-16 14:18 59.99374 11.39083 11217 ft 298 kts
2026-04-16 14:18 60.01443 11.39140 10925 ft 297 kts
2026-04-16 14:18 60.03513 11.39197 10616 ft 297 kts
2026-04-16 14:18 60.05592 11.39254 10192 ft 301 kts
2026-04-16 14:19 60.07682 11.39311 9852 ft 300 kts
2026-04-16 14:19 60.09770 11.39369 9509 ft 299 kts
2026-04-16 14:19 60.11846 11.39427 9196 ft 298 kts
2026-04-16 14:19 60.13910 11.39483 8884 ft 296 kts
2026-04-16 14:20 60.15962 11.39540 8587 ft 294 kts
2026-04-16 14:20 60.18010 11.39596 8290 ft 293 kts
2026-04-16 14:20 60.20042 11.39652 7983 ft 292 kts
2026-04-16 14:20 60.22084 11.39710 7548 ft 296 kts
2026-04-16 14:21 60.24142 11.39767 7224 ft 295 kts
2026-04-16 14:21 60.26192 11.39824 6893 ft 291 kts
2026-04-16 14:21 60.28163 11.39878 6595 ft 283 kts
2026-04-16 14:21 60.30132 11.39933 6323 ft 277 kts
2026-04-16 14:22 60.32056 11.39987 6056 ft 276 kts
2026-04-16 14:22 60.33957 11.40040 5919 ft 269 kts
2026-04-16 14:22 60.35781 11.40092 5795 ft 262 kts
2026-04-16 14:22 60.37594 11.40141 5718 ft 253 kts
2026-04-16 14:23 60.39283 11.39512 5592 ft 246 kts 331°
2026-04-16 14:23 60.40503 11.37327 5497 ft 236 kts 301°
2026-04-16 14:23 60.41075 11.34323 5284 ft 225 kts 276°
2026-04-16 14:23 60.41036 11.31248 5018 ft 215 kts 254°
2026-04-16 14:24 60.40678 11.28356 4798 ft 209 kts 252°
2026-04-16 14:24 60.40312 11.25559 4549 ft 203 kts 246°
2026-04-16 14:24 60.39496 11.23437 4348 ft 187 kts 202°
2026-04-16 14:24 60.38249 11.22831 4205 ft 187 kts 189°
2026-04-16 14:25 60.37004 11.21992 3982 ft 189 kts 197°
2026-04-16 14:25 60.35774 11.21250 3923 ft 179 kts 193°
2026-04-16 14:25 60.34578 11.20592 3713 ft 175 kts 192°
2026-04-16 14:25 60.33405 11.19926 3461 ft 176 kts 193°
2026-04-16 14:26 60.32238 11.19254 3243 ft 175 kts 193°
2026-04-16 14:26 60.31060 11.18570 2993 ft 174 kts 193°
2026-04-16 14:26 60.29902 11.17904 2752 ft 171 kts 193°
2026-04-16 14:26 60.28772 11.17249 2516 ft 167 kts 193°
2026-04-16 14:27 60.27673 11.16616 2291 ft 161 kts 193°
2026-04-16 14:27 60.26623 11.16009 2076 ft 155 kts 193°
2026-04-16 14:27 60.25622 11.15430 1881 ft 146 kts 193°
2026-04-16 14:27 60.24662 11.14874 1675 ft 141 kts 193°
2026-04-16 14:28 60.23732 11.14336 1462 ft 138 kts 193°
2026-04-16 14:28 60.22817 11.13814 1270 ft 138 kts 194°
2026-04-16 14:28 60.21893 11.13271 1092 ft 137 kts 194°
2026-04-16 14:28 60.20971 11.12740 909 ft 139 kts 194°
2026-04-16 14:29 60.20044 11.12203 725 ft 139 kts 194°
2026-04-16 14:29 60.19191 11.11714 682 ft 103 kts 196°
2026-04-16 14:29 60.18711 11.11435 683 ft 41 kts 196°
2026-04-16 14:29 60.18515 11.11275 681 ft 27 kts 212°
2026-04-16 14:30 60.18438 11.11109 682 ft 12 kts 256°
2026-04-16 14:30 60.18451 11.10948 680 ft 12 kts 286°
2026-04-16 14:30 60.18474 11.10799 678 ft 10 kts 296°
2026-04-16 14:30 60.18537 11.10771 681 ft 11 kts 14°
2026-04-16 14:31 60.18634 11.10827 681 ft 19 kts 16°
2026-04-16 14:31 60.18784 11.10914 682 ft 25 kts 16°
2026-04-16 14:31 60.18946 11.11007 682 ft 23 kts 16°
2026-04-16 14:31 60.19099 11.11096 680 ft 22 kts 16°
2026-04-16 14:32 60.19247 11.11181 681 ft 22 kts 16°
2026-04-16 14:32 60.19359 11.11246 683 ft 11 kts 16°
2026-04-16 14:32 60.19420 11.11217 682 ft 10 kts 301°
2026-04-16 14:32 60.19445 11.11049 682 ft 14 kts 286°
2026-04-16 14:33 60.19471 11.10872 682 ft 14 kts 286°
2026-04-16 14:33 60.19496 11.10693 680 ft 13 kts 286°
2026-04-16 14:33 60.19521 11.10521 682 ft 13 kts 286°
2026-04-16 14:33 60.19546 11.10414 682 ft 6 kts 321°
2026-04-16 14:34 60.19577 11.10353 682 ft 6 kts 293°
2026-04-16 14:34 60.19589 11.10270 684 ft 6 kts 285°
2026-04-16 14:34 60.19599 11.10202 678 ft 3 kts 286°
2026-04-16 14:34 60.19602 11.10181 682 ft 0 kts 286°